STARLINK-31510, 59575

Orbit data source: Space-Track

STARLINK-31510, 59575 is a payload satellite owned by SpaceX/Seattle (US) in LEO that was launched on Tue, 23 Apr 2024 UTC via an FALCON 9 launch vehicle from the Air Force Eastern Test Range (AFETR). Payload-class satellites include a variety of spacecraft equipped with specific instruments for various scientific and technological missions. These include communications satellites like Starlink; space stations such as the ISS; scientific satellites like the Hubble; Earth observation satellites from companies like Planet Labs, Umbra, and HawkEye 360; GPS; miniature CubeSats for education and research; and military/defense satellites.

Loading next visibility...
Identifier
59575, 2024-076M
Orbit
LEO
Country
Flag of USUS
Related business
Manufacturer
SpaceX/Seattle
Mission
Operational Commercial Communications
Bus & Motor
STARLINK V2M, Unknown motor
Mass
730 kg wet, ~700 kg dry
Launch date (UTC)
2024-04-23 (2 years ago)
Launch vehicle
FALCON 9
Launch site
Air Force Eastern Test Range (AFETR)
Object type
Payload
Rocket body
Debris
Shape & HBR
Box + 2 Pan, 17.7 m
Radar Cross Section
33.884 m², Large (>1 m²)

Expand to show TLE details & history
Last TLE update: 15 hours ago

TLE from 15 hours ago
0 STARLINK-31510
1 59575U 24076M   25302.92973884 -.00004858  00000-0 -16728-3 0  9996
2 59575  43.0022  24.1007 0001179 255.1553 104.9168 15.27549886 86549
Epoch: 2025-10-29T22:18Z
TLE epoch observation values (Epoch: 2025-10-29T22:18:49.435Z)
Latitude
-0.00004°
Longitude
10.89886°
Altitude
483.123 km
Speed
7.626 km/s
True Right ascension
01h 36m 24s
True Declination
0° 00' 00"
Sunlit
Object was in full shadow at epoch
Visualization orbit readout
Latitude
Unknown
Longitude
Unknown
Altitude
Unknown
Speed
Unknown
Apparent Right ascension
Unknown
Apparent Declination
Unknown
Sunlit
N/A
Visualization observer readout
Local Sidereal Time
09:10:40
Azimuth
Unknown
Elevation
Unknown
Doppler factor
Unknown
Orbital elements
Apogee altitude
485.893 km
Perigee altitude
484.275 km
Semi-major axis
6,863.221 km
Eccentricity
0.00012
Inclination
43.0022°
RAAN
24.1007°
Arg. of periapsis
255.1553°
True anomaly
104.92985°
Mean anomaly
104.9168°
Eccentric anomaly
104.92333°
Mean motion
3.81726 °/min
Orbital period
94.31 mins
BSTAR
-0.00016728
Loading maneuver chart data...
Computing Atmospheric mass density...
Loading historical data...
Loading historical data...
Loading historical data...
Loading historical data...
Loading historical data...
Loading historical data...
Loading historical data...

Documentation

Showing up to 5 results
|